Wind_Speed
35 37 45 40 36 32 25 23 30 26 24 19 21 19 16 19 18 22 20 16 13 15 23 27 30 31 31 30 31 28 27 26 27 26 24 21 17 15 13 10 7 6 6 5
34 43 36 34 33 31 23 24 25 25 20 19 20 26 27 29 29 28 27 24 16 14 25 30 31 34 32 31 29 31 29 29 28 27 23 20 18 17 16 13 9 7 6 5
37 27 36 33 35 35 36 27 28 21 17 20 18 21 29 31 35 35 30 30 21 20 19 29 33 34 34 34 32 31 30 31 30 27 26 24 24 23 19 14 9 7 6 5
27 30 9 34 35 34 37 39 31 25 14 10 18 7 19 24 29 35 27 33 31 24 25 23 31 35 37 35 34 32 28 32 32 30 29 27 24 21 16 12 11 10 8 6
29 20 32 20 33 34 36 28 35 31 23 17 16 14 32 26 29 38 34 31 35 28 27 26 24 26 31 36 36 36 34 33 34 33 31 29 27 23 18 15 14 13 10 8
22 24 20 27 31 19 31 9 20 28 20 19 31 24 22 31 30 28 26 33 30 31 30 28 27 23 24 28 35 37 38 37 37 35 34 31 28 24 21 18 16 13 11 10
25 36 24 27 19 25 22 24 8 7 10 13 23 24 39 9 32 29 27 23 28 24 32 32 28 27 28 25 30 36 37 38 38 37 36 32 29 26 23 20 18 14 12 10
5 10 30 27 25 26 35 33 15 7 4 11 20 17 39 34 32 20 17 23 26 26 29 30 30 25 24 25 27 36 37 36 37 36 35 33 31 28 25 23 20 16 13 12
3 9 15 31 29 25 27 40 33 23 9 5 13 33 45 29 32 25 23 22 24 21 24 27 27 29 28 28 31 34 36 35 36 35 35 33 31 29 26 23 21 18 16 15
3 7 17 19 26 34 25 17 21 25 10 8 5 22 23 36 46 34 22 22 18 17 23 27 29 30 31 27 29 30 35 36 35 35 36 35 33 30 28 27 25 22 19 18
9 8 12 16 19 23 29 29 21 18 28 10 3 17 10 16 30 40 32 25 22 16 19 23 29 32 29 28 31 31 31 36 37 37 36 36 34 33 31 29 27 25 23 22
11 6 11 22 14 16 13 25 20 13 10 30 24 27 21 24 13 21 25 27 27 21 19 18 20 30 33 26 26 29 32 34 38 36 36 35 34 35 33 31 30 28 27 25
5 3 6 8 22 25 22 18 16 14 15 25 15 14 33 33 18 14 16 17 29 28 25 22 23 28 33 32 29 27 29 34 35 36 36 36 36 36 34 33 31 31 29 27
9 9 12 12 8 6 9 15 15 7 11 14 30 24 21 22 28 25 20 17 21 23 24 26 24 25 28 31 30 32 27 30 34 35 35 36 35 34 33 34 33 32 31 29
8 12 12 20 27 31 23 21 21 18 15 14 20 27 32 30 26 25 23 28 30 29 25 27 26 30 26 30 30 31 31 27 30 32 34 35 34 33 34 34 34 33 34 31
10 11 14 25 22 25 29 25 26 18 19 24 19 31 22 25 35 35 32 27 33 34 35 32 31 31 32 28 29 26 33 27 29 28 30 30 31 31 32 33 33 34 33 31
14 14 10 11 8 9 18 27 23 15 11 14 19 25 30 30 23 24 26 27 31 34 34 38 42 37 34 30 31 27 29 31 28 28 23 25 28 28 28 29 31 31 30 30
23 18 14 15 8 5 8 19 15 15 15 19 22 20 22 29 30 28 27 26 27 29 40 46 50 39 36 31 34 32 27 30 27 28 27 26 24 24 25 26 26 26 26 26
27 22 14 6 7 4 17 18 15 12 12 19 24 26 27 26 26 29 28 21 25 22 26 27 39 40 37 35 37 31 26 29 26 23 19 17 18 19 20 20 20 20 21 21
29 23 22 9 6 6 9 15 16 18 13 16 23 29 27 25 21 19 20 21 23 18 32 40 41 39 36 35 37 31 30 30 26 24 22 23 22 21 20 17 16 16 18 19
22 23 26 25 9 5 11 13 23 12 14 18 23 26 27 28 24 20 14 16 20 22 33 38 39 37 41 35 37 34 35 33 27 25 26 25 23 21 18 17 16 19 20 22
14 11 14 21 10 8 7 6 5 20 23 22 22 25 27 29 28 25 21 19 18 23 31 36 35 35 36 37 35 37 37 38 32 32 31 29 25 22 21 20 20 23 25 25
7 6 3 7 6 9 13 11 5 25 26 24 20 23 26 29 31 28 27 25 22 22 25 28 29 31 35 38 36 40 39 38 39 34 30 30 31 29 24 22 24 24 25 20
4 11 11 4 6 7 11 5 10 27 26 24 21 20 22 25 28 28 29 29 27 25 25 26 27 29 30 32 35 35 39 43 39 37 36 33 31 31 30 27 30 27 23 22
21 23 17 17 17 9 4 15 8 27 25 23 20 20 19 23 25 26 28 29 29 28 28 28 26 25 26 27 28 29 31 32 35 38 40 40 38 37 35 32 32 31 28 26
29 21 20 18 15 13 15 10 11 28 25 24 19 18 16 18 23 25 26 27 28 28 28 29 29 28 28 27 26 24 24 25 27 27 29 31 31 31 33 33 33 33 33 34
Wind_Direction
206 206 209 207 212 211 216 221 221 220 214 231 232 236 240 242 227 220 220 227 232 210 202 206 206 207 209 204 208 210 208 204 200 198 198 194 194 184 191 185 188 186 196 180
211 218 225 214 215 216 208 216 220 222 211 229 237 250 250 245 240 248 251 240 248 220 207 202 208 210 212 212 207 209 211 210 208 204 201 196 198 189 190 190 190 177 186 179
215 224 225 219 219 218 219 211 213 220 229 231 251 257 246 244 241 246 248 237 247 234 224 208 203 210 213 212 209 207 211 210 210 208 202 201 201 197 195 190 184 185 188 197
229 218 237 227 226 222 228 219 217 232 241 226 215 257 243 245 249 239 246 238 239 233 221 221 214 207 212 213 211 210 208 205 207 209 208 205 205 203 195 193 195 200 195 206
223 234 228 230 224 226 234 225 226 233 246 245 228 241 256 252 245 239 242 233 239 242 226 226 224 223 215 213 214 210 210 207 206 209 212 208 205 203 201 199 206 207 204 207
231 234 236 248 246 248 228 225 227 237 239 238 240 236 255 238 236 242 252 245 238 236 226 226 228 222 220 220 212 210 207 206 205 208 209 210 207 203 204 206 211 210 209 212
236 237 235 241 244 237 219 208 212 220 211 235 231 234 237 240 239 244 248 247 240 226 221 222 221 225 224 218 207 205 204 203 203 205 208 207 209 206 203 208 216 218 214 212
237 220 228 232 237 230 219 211 200 202 195 222 221 226 236 248 251 250 262 257 247 228 213 216 221 221 215 220 217 206 205 204 205 204 208 208 208 207 207 210 215 216 214 209
267 224 204 224 228 221 221 221 222 239 253 283 223 241 251 242 240 245 247 256 233 233 233 213 213 219 224 220 212 207 209 209 210 209 209 213 211 209 208 211 216 218 219 212
284 290 223 218 229 229 221 217 205 219 218 233 227 228 240 245 241 241 239 234 240 256 228 225 210 211 217 218 223 216 207 212 212 213 213 213 214 211 210 211 215 218 222 222
288 263 240 230 229 237 229 231 224 223 217 225 154 244 204 235 244 243 239 233 246 261 223 223 215 211 205 211 223 225 217 208 210 213 215 216 216 215 213 212 215 218 221 225
283 265 265 246 222 223 202 217 231 238 222 226 231 243 230 235 230 225 239 248 242 241 235 252 241 220 217 204 208 215 221 216 211 211 214 217 218 217 216 214 216 218 221 223
259 247 290 273 237 233 231 228 227 238 236 244 217 238 251 235 220 215 231 234 238 244 246 258 242 220 220 219 208 207 208 214 213 212 212 213 217 218 217 216 217 220 223 223
262 240 242 242 222 257 230 208 226 278 245 248 240 245 235 246 238 242 246 229 228 230 244 242 235 221 217 213 214 212 210 210 211 212 212 215 216 216 218 220 219 220 224 225
262 264 266 270 267 267 261 246 238 266 258 262 240 240 249 244 246 252 246 243 236 223 232 231 230 226 219 216 211 213 212 214 215 214 211 212 212 213 215 219 220 220 223 226
259 277 291 285 275 264 255 253 256 272 268 263 250 236 240 252 251 254 258 254 245 235 232 239 229 224 227 217 211 212 214 213 216 215 213 214 213 213 213 216 220 223 224 227
255 271 292 273 269 258 263 253 244 237 244 217 224 232 232 241 245 250 252 258 245 233 232 232 231 226 212 210 204 208 212 212 215 219 214 216 216 215 216 218 222 224 227 229
248 256 265 276 278 211 204 151 189 195 199 201 207 212 213 233 242 250 254 249 243 234 234 231 222 209 206 198 199 206 206 209 215 213 214 217 216 214 213 218 223 226 229 232
241 240 239 245 260 227 172 170 171 161 143 179 187 197 207 210 223 240 249 257 230 250 212 186 182 196 204 196 197 203 200 200 184 178 180 177 176 185 193 199 205 214 220 227
224 230 235 231 246 214 176 194 181 147 113 140 169 177 178 191 197 217 239 250 245 221 197 187 188 194 198 193 197 198 198 185 184 186 194 200 204 207 210 211 214 220 227 231
186 211 225 242 253 271 245 233 174 183 159 137 140 158 168 181 191 198 200 230 243 199 191 190 197 202 200 196 197 195 197 189 189 193 195 195 198 199 200 199 203 218 225 231
176 204 221 231 231 244 279 214 171 183 162 145 136 139 144 161 165 169 181 199 208 196 193 192 196 201 200 201 199 198 198 195 200 187 184 189 194 207 211 219 223 229 230 236
43 213 210 213 203 296 279 314 176 158 154 148 147 145 148 156 163 165 168 178 182 180 188 194 199 199 198 202 204 205 200 202 200 212 212 222 226 220 226 237 244 241 235 235
19 45 15 85 359 310 277 283 182 161 157 149 148 146 142 155 162 166 168 168 169 170 174 185 194 200 206 208 209 213 212 207 215 218 217 218 223 236 238 245 244 246 242 241
22 25 25 28 12 26 313 334 220 174 169 160 155 150 150 153 164 170 172 171 168 168 169 172 178 187 195 201 204 209 215 218 224 226 232 238 238 236 239 236 241 247 248 249
20 15 14 351 352 332 319 334 196 182 180 169 164 164 163 156 165 173 178 177 177 175 173 173 173 175 180 184 187 191 199 210 218 225 231 235 236 238 241 247 250 252 256 258
Height
3095 3096 3091 3098 3107 3114 3118 3121 3124 3127 3132 3133 3135 3136 3138 3141 3143 3145 3147 3150 3153 3156 3161 3165 3169 3174 3178 3181 3185 3190 3194 3199 3201 3205 3208 3212 3216 3218 3221 3222 3224 3226 3227 3228
3091 3087 3096 3103 3107 3112 3116 3118 3121 3126 3128 3130 3132 3131 3134 3136 3139 3142 3145 3147 3151 3154 3156 3160 3166 3170 3173 3178 3182 3187 3192 3196 3200 3203 3208 3211 3215 3217 3219 3221 3223 3225 3227 3228
3085 3091 3094 3099 3103 3107 3111 3114 3119 3124 3127 3128 3128 3127 3127 3130 3134 3137 3140 3144 3148 3151 3153 3156 3160 3166 3170 3174 3178 3183 3188 3193 3197 3201 3205 3209 3211 3214 3217 3219 3222 3224 3226 3228
3087 3091 3091 3093 3097 3104 3105 3111 3117 3120 3125 3124 3125 3122 3120 3125 3127 3130 3134 3138 3142 3147 3150 3153 3156 3161 3165 3170 3175 3180 3184 3188 3194 3198 3202 3206 3211 3214 3217 3219 3221 3223 3225 3227
3081 3086 3089 3089 3091 3099 3100 3108 3114 3118 3121 3122 3119 3121 3112 3119 3118 3122 3127 3132 3137 3142 3146 3149 3153 3157 3162 3167 3171 3175 3180 3184 3189 3194 3200 3204 3207 3211 3214 3217 3220 3222 3224 3226
3079 3083 3086 3089 3093 3097 3102 3109 3112 3115 3118 3113 3113 3116 3105 3108 3113 3118 3123 3126 3131 3137 3141 3144 3149 3153 3156 3161 3166 3171 3174 3179 3184 3190 3195 3201 3204 3208 3211 3214 3218 3221 3223 3225
3073 3076 3082 3087 3089 3093 3097 3104 3107 3111 3108 3101 3108 3110 3096 3102 3109 3114 3117 3121 3125 3130 3135 3139 3142 3146 3151 3155 3160 3165 3170 3174 3180 3186 3191 3196 3202 3205 3208 3212 3215 3219 3221 3223
3068 3072 3076 3077 3082 3085 3088 3093 3093 3102 3101 3099 3103 3093 3085 3104 3109 3111 3113 3117 3120 3125 3130 3133 3138 3143 3147 3151 3156 3161 3166 3171 3176 3181 3187 3192 3197 3201 3205 3209 3212 3216 3220 3222
3066 3067 3069 3072 3076 3080 3082 3082 3092 3094 3094 3095 3091 3091 3088 3096 3103 3107 3109 3112 3116 3120 3125 3128 3134 3139 3142 3146 3151 3157 3162 3167 3172 3178 3183 3188 3192 3196 3201 3206 3209 3213 3216 3219
3064 3065 3064 3067 3070 3074 3076 3082 3087 3087 3090 3092 3084 3083 3082 3088 3095 3102 3106 3109 3111 3115 3120 3124 3130 3135 3138 3142 3147 3153 3158 3163 3168 3174 3178 3183 3188 3193 3197 3201 3205 3209 3213 3216
3062 3062 3062 3063 3065 3068 3072 3074 3076 3077 3078 3078 3084 3076 3080 3086 3092 3098 3103 3106 3109 3112 3115 3120 3125 3130 3135 3139 3142 3147 3153 3158 3162 3168 3174 3179 3183 3188 3192 3196 3201 3205 3209 3212
3059 3058 3057 3057 3061 3062 3063 3067 3067 3068 3069 3069 3072 3070 3079 3084 3087 3092 3097 3103 3104 3108 3111 3115 3119 3124 3130 3134 3138 3142 3148 3152 3157 3163 3168 3173 3179 3183 3187 3191 3196 3200 3205 3208
3055 3057 3055 3053 3055 3055 3058 3059 3061 3061 3065 3062 3067 3068 3076 3081 3082 3085 3090 3095 3099 3103 3106 3108 3112 3116 3123 3129 3134 3138 3142 3148 3153 3158 3162 3167 3172 3177 3182 3186 3191 3196 3200 3205
3053 3053 3054 3051 3048 3051 3052 3054 3057 3058 3060 3059 3059 3066 3071 3075 3079 3083 3087 3090 3094 3096 3099 3104 3106 3111 3118 3124 3130 3135 3139 3144 3148 3152 3156 3161 3166 3172 3177 3182 3186 3191 3195 3199
3051 3050 3051 3046 3045 3045 3045 3046 3051 3052 3055 3055 3057 3062 3067 3071 3075 3078 3079 3082 3086 3090 3094 3098 3101 3105 3112 3118 3124 3130 3136 3140 3144 3147 3151 3156 3161 3167 3171 3176 3181 3186 3189 3194
3048 3049 3047 3040 3039 3039 3038 3040 3042 3047 3045 3044 3053 3054 3061 3065 3067 3070 3071 3073 3077 3081 3086 3089 3095 3100 3105 3112 3119 3125 3130 3135 3139 3142 3147 3152 3156 3161 3166 3172 3177 3180 3185 3189
3046 3048 3047 3038 3035 3037 3035 3031 3036 3037 3037 3041 3045 3050 3054 3057 3060 3062 3063 3065 3069 3073 3077 3081 3086 3093 3100 3106 3114 3119 3124 3130 3135 3139 3143 3147 3151 3157 3162 3168 3172 3176 3180 3184
3040 3044 3045 3036 3034 3033 3028 3026 3030 3034 3030 3036 3039 3045 3048 3051 3054 3056 3056 3056 3060 3063 3065 3068 3075 3086 3095 3101 3108 3113 3120 3126 3131 3134 3139 3143 3148 3153 3158 3163 3167 3171 3175 3178
3034 3038 3038 3034 3030 3026 3024 3025 3027 3028 3028 3031 3033 3038 3040 3044 3048 3050 3049 3049 3051 3053 3055 3060 3069 3080 3087 3095 3103 3110 3116 3121 3125 3130 3136 3141 3145 3150 3154 3159 3163 3166 3169 3173
3027 3031 3035 3030 3028 3019 3017 3020 3023 3023 3027 3028 3029 3031 3035 3038 3041 3043 3043 3043 3045 3046 3052 3060 3068 3075 3082 3090 3099 3106 3112 3117 3121 3127 3133 3138 3142 3147 3151 3155 3159 3162 3164 3167
3020 3025 3026 3027 3023 3017 3013 3015 3017 3023 3028 3025 3024 3027 3030 3032 3036 3037 3039 3040 3041 3042 3049 3057 3064 3071 3079 3086 3095 3102 3107 3112 3119 3124 3129 3135 3140 3144 3148 3152 3155 3157 3159 3161
3017 3021 3020 3022 3020 3016 3010 3013 3013 3017 3020 3021 3022 3024 3025 3028 3031 3034 3037 3040 3040 3042 3047 3053 3060 3067 3074 3082 3090 3097 3103 3108 3114 3119 3124 3129 3135 3139 3143 3147 3150 3152 3153 3155
3014 3015 3014 3016 3014 3009 3005 3005 3009 3013 3015 3017 3021 3022 3023 3025 3030 3033 3036 3039 3040 3042 3046 3051 3057 3063 3070 3077 3085 3092 3098 3104 3108 3114 3120 3124 3127 3132 3136 3140 3143 3145 3148 3150
3014 3012 3009 3008 3009 3007 3006 3006 3004 3006 3011 3014 3017 3022 3023 3024 3026 3031 3034 3037 3041 3043 3045 3049 3054 3060 3067 3073 3079 3086 3092 3098 3103 3107 3112 3116 3120 3124 3130 3134 3136 3139 3142 3145
3014 3011 3007 3005 3004 3002 3007 3009 3004 3004 3008 3013 3016 3019 3021 3021 3024 3028 3033 3037 3040 3043 3046 3050 3054 3058 3063 3068 3073 3079 3085 3090 3096 3101 3105 3109 3113 3118 3121 3126 3129 3132 3135 3138
3015 3013 3013 3011 3010 3009 3006 2999 2996 3001 3004 3011 3014 3017 3020 3020 3023 3027 3031 3035 3039 3042 3046 3050 3054 3059 3062 3067 3071 3076 3081 3085 3090 3094 3099 3103 3106 3111 3114 3118 3121 3124 3127 3130